Regional Weather Roundup
Issued by NWS

Home | Current Version | Previous Version | Graphics & Text | Print | Product List | Glossary On
Versions: 1 2 3 4 5 6 7 8 9 10 11 12 13 14 15 16 17 18 19 20 21 22 23 24 25 26 27 28 29 30 31 32 33 34 35 36 37 38 39 40 41 42 43 44 45 46 47 48 49 50
058
ASUS44 KLIX 172210
RWRLA
LOUISIANA WEATHER ROUNDUP
NATIONAL WEATHER SERVICE NEW ORLEANS LA
400 PM CST WED DEC 17 2014

NOTE: "FAIR" INDICATES FEW OR NO CLOUDS BELOW 12,000 FEET WITH NO
      SIGNIFICANT WEATHER AND/OR OBSTRUCTIONS TO VISIBILITY.
      SKY/WX - SKY CONDITION AND SIGNIFICANT WEATHER.
      TMP - AIR TEMPERATURE.    DP   - DEWPOINT TEMPERATURE.
      RH  - RELATIVE HUMIDITY.  PRES - PRESSURE.
      HX  - HEAT INDEX.         WCI  - WIND CHILL INDEX.

*  THESE STATIONS ARE NOT NWS OR FAA STATIONS AND ARE NOT UNDER
   NWS QUALITY CONTROL.

LAZ040-048-061>063-065-066-069-172300-
SOUTHEAST LOUISIANA

CITY           SKY/WX    TMP DP  RH WIND       PRES   REMARKS
N.O. AUDUBON     N/A     58  44  60 MISG        N/A
N.O. INTL ARPT PTSUNNY   57  40  52 NE6       30.19F
N.O. LAKEFRONT MOSUNNY   58  39  49 NW5       30.20S
N.O. DOWNTOWN* FAIR      57  37  47 N5        30.19F
SLIDELL        MOSUNNY   59  42  53 CALM      30.19S
BATON ROUGE    SUNNY     60  39  45 E6        30.18F
BOOTHVILLE     MOSUNNY   58  48  69 NE7       30.19F
BELLE CHASSE   PTSUNNY   59  42  53 E6        30.18F
BOGALUSA*        N/A     60  41  49 N3        30.21S
GALLIANO*      PTCLDY    61  46  57 MISG      30.18F
NEW ROADS*     FAIR      59  40  48 SE5       30.18S
GONZALES*      FAIR      60  40  47 CALM      30.18S
HAMMOND*       NOT AVBL
HOUMA*         MOSUNNY   61  43  51 NE9       30.17F
PORT FOURCHON* CLEAR     59  46  63 NE8       30.21S

$$

LAZ041-044-053-054-172300-
SOUTHWEST LOUISIANA

CITY           SKY/WX    TMP DP  RH WIND       PRES   REMARKS
LAKE CHARLES   PTSUNNY   60  42  51 SE9       30.16F
LAFAYETTE      MOSUNNY   61  39  44 SE3       30.17F
PATTERSON      MOSUNNY   63  43  48 NE6       30.18S
SALT POINT       N/A     64  44  48 CALM      30.16S
NEW IBERIA     PTSUNNY   62  41  46 NE5       30.18F
CHENAULT AIRPK MOSUNNY   59  43  55 E6        30.16F

$$

LAZ027-028-172300-
CENTRAL LOUISIANA

CITY           SKY/WX    TMP DP  RH WIND       PRES   REMARKS
FORT POLK      MOSUNNY   55  43  64 NE6       30.15F HAZE
ALEXANDRIA INT CLOUDY    56  40  55 E7        30.17F
ALEXANDRIA     MOSUNNY   57  39  51 E6        30.18F

$$

LAZ001-002-172300-
NORTHWEST LOUISIANA

CITY           SKY/WX    TMP DP  RH WIND       PRES   REMARKS
SHREVEPORT     CLOUDY    48  37  65 NE8       30.18F
BARKSDALE AFB  NOT AVBL
DTN SHREVEPORT CLOUDY    47  35  63 NE7       30.20R

$$

LAZ014-016-172300-
NORTHEAST LOUISIANA

CITY           SKY/WX    TMP DP  RH WIND       PRES   REMARKS
MONROE         CLOUDY    52  39  61 NE6       30.22S
TALLULAH       CLOUDY    54  38  54 N3        30.21F

$$




USA.gov is the U.S. government's official web portal to all federal, state and local government web resources and services.